Location: Asheville, NC
(35.6000°N, 82.5500°W)
Time: 06:23:05
(UTC-05:00)

Vanguard 3 - Pass Details

Date: 14 February 2018
Orbit: 508 x 3264 km, 33.3° (Epoch: 24 February)

Event Time Altitude Azimuth Distance (km) Brightness Sun altitude
Rises 01:53:14 0° 258° (WSW) 4,553 - -62.6°
Reaches altitude 10° 01:58:59 10° 229° (SW) 4,218 - -61.8°
Maximum altitude 02:02:44 12° 210° (SSW) 4,437 - -61.3°
Drops below altitude 10° 02:07:04 10° 192° (SSW) 5,005 - -60.7°
Sets 02:16:10 0° 167° (SSE) 6,690 - -59.4°
